Location: Poughquag
(41.6090°N, 73.6820°W)
Time: 04:47:27
(UTC-04:00)

ITUPSAT 1 - Pass Details

Date: 20 June 2024
Orbit: 695 x 705 km, 98.5° (Epoch: 24 July)

Event Time Altitude Azimuth Distance (km) Brightness Sun altitude
Rises 22:47:34 0° 17° (NNE) 3,106 ? -18.4°
Reaches altitude 10° 22:49:53 10° 22° (NNE) 2,184 ? -18.6°
Maximum altitude 22:54:35 57° 101° (E) 833 ? -19.1°
Enters shadow 22:56:01 40° 156° (SSE) 1,034 ? -19.2°
